Погода в Лагос де Морено

Мексика     21°21′15″N   101°56′01″W
темп.,
°C
ветер,
м/с
пор.,
м/с
влажн.,
%
обл.,
%
осадки,
мм/ч
давл.,
гПа
погр.,
м
23 мая, пн
пн2301:00+20юв495453 0.0 1014253
04:00+19юв37615 0.0 1014208
07:00+17ююв2462100 0.0 101663
10:00+23ю44435 0.0 10151038
13:00+29зюз55194 0.0 10113141
16:00+31з651329 0.1 10073734
19:00+30з86124 0.1 10053753
22:00+23ю352181 0.0 1009122
24 мая, вт
вт2401:00+18юв58578 0.0 1012192
04:00+17ююв39674 0.0 1012261
07:00+15юв23741 0.0 101350
10:00+23ююз35365 0.0 1011900
13:00+29з67141 0.0 10083222
16:00+31з771051 0.0 10043959
19:00+30зсз761021 0.0 10033656
22:00+23зсз41214100 0.0 1007223
25 мая, ср
ср2501:00+19зюз1120100 0.0 101016
04:00+17вюв112931 0.0 101011
07:00+16в1135100 0.0 101211
10:00+22юз3325100 0.0 1012831
13:00+28з4313100 0.0 10092101
16:00+30юз3310100 0.0 10073290
19:00+29зюз3310100 0.0 10052562
22:00+23з3515100 0.0 100880
26 мая, чт
чт2601:00+20всв2218100 0.0 101112
04:00+19ююв111988 0.0 101111
07:00+17в1127100 0.0 101311
10:00+24юв342988 0.0 1013677
13:00+30ююв4720100 0.0 10113545
16:00+31св131499 0.0 10064130
19:00+20всв12134956 2.6 1014743
22:00+21в333891 1.9 101379
27 мая, пт
пт2701:00+19ююз115442 1.9 101621
04:00+17ссз2266100 0.0 101521
07:00+16св227597 0.0 101629
10:00+23в343998 0.0 1016780
13:00+29всв461695 0.0 10123289
16:00+32св751374 0.0 10083996
19:00+29всв861599 0.0 10073758
22:00+23в814411 0.0 1012660